Вернуться в каталог

R5-S4

АктивенНаукаSSO
NORAD 60206·PAYLOAD·🇺🇸 United States

Запущен Jul 4, 2024 с Vandenberg Space Force Base

Loading…

Ближайшие Пролёты (ближайшие 24 часа)

TLE

СвежийSource: Space-Track

Эпоха: Sep 14, 2026, 08:53 UTC

1 60206U 24125D   26257.37024464  .00013106  00000-0  27402-3 0  9999
2 60206  97.2280 108.1561 0013547 265.1973  94.7729 15.45509826122894

Отслеживайте R5-S4 в реальном времени с AllMySat

Download on the App Store